Regional Weather Roundup
Issued by NWS Charleston, SC

Current Version | Previous Version | Graphics & Text | Print | Product List | Glossary On
Versions: 1 2 3 4 5 6 7 8 9 10 11 12 13 14 15 16 17 18 19 20 21 22 23 24 25 26 27 28 29 30 31 32 33 34 35 36 37 38 39 40 41 42 43 44 45 46 47 48 49 50
993 ASUS42 KCHS 181527 RWRCHS Regional Weather Roundup National Weather Service Charleston SC 1000 AM EST MON DEC 18 2017 NOTE: "fair" indicates few or no clouds below 12,000 feet with no significant weather and/or obstructions to visibility. Not all stations are quality controlled. Use data with caution, especially dewpoint observations. SCZ027-030-031-034>040-042>050-181600- ...Southeast South Carolina... CITY SKY/WX TMP DP RH WIND PRES REMARKS N Charleston CLOUDY 61 59 93 W7 30.21R Waterfront Prk N/A 63 60 90 VRB2 30.06R Mount Pleasant CLOUDY 64 61 88 W6 30.21R Johns Island CLOUDY 66 63 88 SW7 30.21S Pinopolis N/A 59 57 94 VRB3 30.11R Moncks Corner CLOUDY 64 59 82 SW5 30.21R Summerville CLOUDY 63 59 88 W5 30.22R Beaufort MCAS CLOUDY 63 63 100 SW7 30.22R Beaufort Arpt CLOUDY 61 59 94 SW5 30.22R Hilton Head Is PTSUNNY 61 61 100 S9 30.23R Walterboro CLOUDY 63 59 88 W5 30.23R Allendale CLOUDY 63 57 82 CALM 30.21R ...Southern Midlands and Pee Dee... CITY SKY/WX TMP DP RH WIND PRES REMARKS Georgetown CLOUDY 66 61 82 W6 30.21S Kingstree CLOUDY 59 54 82 SW5 30.21R Orangeburg CLOUDY 61 55 81 SW7 30.21R Barnwell N/A 64 57 77 CALM 30.20S Aiken CLOUDY 57 50 77 SW7 30.23S Manning CLOUDY 61 37 41 MISG 30.21R Columbia PTSUNNY 58 45 62 CALM 30.20R Sumter CLOUDY 57 48 72 W7 30.18S Florence CLOUDY 59 49 69 W6 30.20S Myrtle Beach PTSUNNY 65 58 78 W10 30.21R N Myrtle Beach CLOUDY 62 57 83 W3 30.19R $$ GAZ063-065-086>088-099>101-113>116-118-119-134>141-150-181600- ...Southeast Georgia... CITY SKY/WX TMP DP RH WIND PRES REMARKS Savannah Arpt CLOUDY 63 62 97 SW5 30.23R Hunter AAF CLOUDY 63 61 94 SW7 30.20S Fort Stewart DRIZZLE 63 61 94 CALM 30.21R Statesboro CLOUDY 63 58 84 CALM 30.23R Sylvania CLOUDY 61 59 93 CALM 30.23R Claxton CLOUDY 62 61 97 CALM 30.23R FOG ...CSRA, Central and far Southeast Georgia... CITY SKY/WX TMP DP RH WIND PRES REMARKS Thomson CLOUDY 57 50 77 CALM 30.25S Augusta-Bush CLOUDY 59 45 59 CALM 30.21R Augusta-Daniel CLOUDY 57 48 72 SW3 30.21R Swainsboro CLOUDY N/A N/A N/A CALM 30.22R Vidalia CLOUDY 63 63 100 CALM 30.21S FOG Eastman HAZE 65 59 80 CALM 30.24R VSB 1/2 Hazlehurst CLOUDY 64 63 94 S3 30.21S FOG Alma CLOUDY 64 62 93 S5 30.22S FOG Waycross CLOUDY 67 64 90 SW6 30.23S Jesup NOT AVBL Baxley CLOUDY 61 61 100 CALM 30.22S FOG Brunswick CLOUDY 66 61 82 SW7 30.25S Saint Simons CLOUDY 64 62 93 W6 30.25R $$ SCZ027-028-034-036>038-045-046-048>050-GAZ119-141-181600- ...Lake and Supplemental Coastal Observations... STATION/POSITION TIME TEMP WIND PRES WAVE SWELL AIR SEA DIR/SP/G HT/PER HT/PER/DIR (UTC) (F) (DEG/KT/KT) (MB) (FT/S) (FT/S/D) Winyah Bay 1445 65 270/ 6 1023.0R Lake Murray 1420 51 280/ 2/ 3 1022.0 ACE Basin NERRS 1445 61 CALM 1023.0S Fort Pulaski 1500 59 54 210/ 5/ 6 1023.8 Sapelo Island 1500 64 220/ 5 1024.0 $$ ANZ835-935-AMZ111-154-330-350-352-354-370-450-454-472-181600- ...C-MAN and Buoy Observations... STATION/POSITION TIME TEMP WIND PRES WAVE SWELL AIR SEA DIR/SP/G HT/PER HT/PER/DIR (UTC) (F) (DEG/KT/KT) (MB) (FT/S) (FT/S/D) Buoy 41004 1510 70 73 240/ 14/ 17 1022.9 Buoy 41008 1450 61 59 210/ 8/ 8 1023.7R 2/ 9 2/100/ 9 Folly Beach CMAN 1500 59 220/ 9/ 10 1023.5R Capers Nearshore 1508 55 56 240/ 8/ 10 1022.6R STATION/POSITION TIME TEMP WIND PRES WAVE SWELL AIR SEA DIR/SP/G HT/PER HT/PER/DIR (UTC) (F) (DEG/KT/KT) (MB) (FT/S) (FT/S/D) 5E St. Marys GA 1500 62 N/A 2/10 Frying Pan Buoy 1510 68 71 260/ 14/ 16 1022.1 Buoy 41025 1510 61 72 300/ 8/ 12 1022.1 Cape Lookout NC 1500 250/ 2/ 3 1022.8R Buoy 41002 1450 72 74 230/ 17/ 19 1023.2R 4/ 5 2/ 90/ 9 Buoy 41010 NOT AVBL St Augustine FL 1500 70 64 240/ 5/ 8 1025.0R $$

USA.gov is the U.S. government's official web portal to all federal, state and local government web resources and services.